Date String (YYYY-MM-DD hh:mm:ss) UTC,Instrument flags,Ambient pressure (hPa),Sample flow (lpm),Bypass flow (lpm),Sample temperature (°C),Ambient temperature (°C),ASC tube jacket temperature (°C),LED temperature (°C),Box temperature (°C),Sample RH (%),Span deviation,Mass concentration (μg/m³),Mass concentration (μg/m³),Mass concentration (μg/m³)
DateTimeUTC,F1_M11,P_M11,Q1_M11,Q2_M11,T1_M11,T2_M11,T3_M11,T4_M11,T5_M11,U1_M11,ZSPAN_M11,X0_M11,X2_M11,X1_M11
2023-02-02 09:00:00,,0828.0,5.04,0.00,22.7,21.2,00.0,31.5,24.4,08.6,0000.0,0011.93,0006.68,0006.19
2023-02-02 09:01:00,,0827.9,5.00,0.00,22.7,21.3,00.0,31.5,24.4,08.7,0000.0,0011.93,0006.73,0006.27
2023-02-02 09:02:00,,0828.0,5.00,0.00,22.7,21.2,00.0,31.5,24.4,08.7,0000.0,0012.07,0006.80,0006.35
2023-02-02 09:03:00,,0828.0,5.02,0.00,22.6,21.2,00.0,31.5,24.4,08.7,0000.0,0011.74,0006.80,0006.36
2023-02-02 09:04:00,,0828.0,4.97,0.00,22.6,21.1,00.0,31.5,24.4,08.7,0000.0,0011.66,0006.79,0006.33
2023-02-02 09:05:00,,0827.9,5.02,0.00,22.6,21.1,00.0,31.5,24.4,08.8,0000.0,0011.64,0006.78,0006.31
2023-02-02 09:06:00,,0828.0,5.00,0.00,22.6,21.1,00.0,31.5,24.4,08.8,0000.0,0011.49,0006.81,0006.31
2023-02-02 09:07:00,,0828.0,4.98,0.00,22.6,21.0,00.0,31.5,24.3,08.8,0000.0,0011.29,0006.84,0006.30
2023-02-02 09:08:00,,0828.0,4.99,0.00,22.6,21.0,00.0,31.5,24.3,08.8,0000.0,0011.66,0006.90,0006.33
2023-02-02 09:09:00,,0828.0,5.04,0.00,22.6,21.0,00.0,31.4,24.3,08.8,0000.0,0011.81,0007.00,0006.41
2023-02-02 09:10:00,,0828.0,4.99,0.00,22.6,21.0,00.0,31.4,24.3,08.8,0000.0,0011.85,0007.13,0006.53
2023-02-02 09:11:00,,0828.0,5.00,0.00,22.6,21.0,00.0,31.4,24.3,08.8,0000.0,0012.03,0007.22,0006.59
2023-02-02 09:12:00,,0828.0,5.02,0.00,22.5,21.0,00.0,31.4,24.3,08.8,0000.0,0012.04,0007.17,0006.54
2023-02-02 09:13:00,,0828.0,4.98,0.00,22.6,21.3,00.0,31.4,24.4,08.9,0000.0,0012.03,0007.17,0006.52
2023-02-02 09:14:00,,0828.0,5.01,0.00,22.6,22.2,00.0,31.4,24.6,08.8,0000.0,0012.13,0007.25,0006.58
2023-02-02 09:15:00,,0828.0,4.97,0.00,22.7,23.0,00.0,31.4,24.8,08.8,0000.0,0012.12,0007.30,0006.63
2023-02-02 09:16:00,,0828.2,5.01,0.00,22.8,22.9,00.0,31.4,24.8,08.7,0000.0,0012.25,0007.38,0006.69
2023-02-02 09:17:00,,0828.0,5.00,0.00,22.8,22.5,00.0,31.5,24.7,08.7,0000.0,0012.35,0007.45,0006.77
2023-02-02 09:18:00,,0828.0,5.01,0.00,22.8,22.2,00.0,31.5,24.7,08.7,0000.0,0012.37,0007.54,0006.82
2023-02-02 09:19:00,,0828.0,5.02,0.00,22.8,22.0,00.0,31.5,24.7,08.6,0000.0,0012.06,0007.50,0006.78
2023-02-02 09:20:00,,0828.0,4.98,0.00,22.8,21.8,00.0,31.5,24.6,08.6,0000.0,0011.94,0007.40,0006.67
2023-02-02 09:21:00,,0828.0,5.03,0.00,22.8,21.7,00.0,31.6,24.6,08.6,0000.0,0011.71,0007.23,0006.51
2023-02-02 09:22:00,,0828.0,5.00,0.00,22.8,21.6,00.0,31.6,24.6,08.7,0000.0,0011.88,0007.10,0006.38
2023-02-02 09:23:00,,0828.0,5.01,0.00,22.8,21.5,00.0,31.6,24.6,08.7,0000.0,0012.05,0007.11,0006.37
2023-02-02 09:24:00,,0828.0,5.01,0.00,22.8,21.4,00.0,31.6,24.6,08.7,0000.0,0012.04,0007.08,0006.35
2023-02-02 09:25:00,,0828.0,4.99,0.00,22.8,21.4,00.0,31.6,24.5,08.7,0000.0,0011.94,0007.04,0006.32
2023-02-02 09:26:00,,0828.0,5.03,0.00,22.8,21.4,00.0,31.6,24.5,08.7,0000.0,0011.98,0007.04,0006.35
2023-02-02 09:27:00,,0828.0,5.02,0.00,22.8,21.4,00.0,31.6,24.5,08.8,0000.0,0012.08,0007.09,0006.39
2023-02-02 09:28:00,,0828.0,4.96,0.00,22.7,21.3,00.0,31.6,24.5,08.8,0000.0,0012.18,0007.16,0006.46
2023-02-02 09:29:00,,0828.1,4.98,0.00,22.7,21.3,00.0,31.6,24.5,08.8,0000.0,0012.40,0007.17,0006.52
2023-02-02 09:30:00,,0828.1,5.04,0.00,22.7,21.2,00.0,31.6,24.5,08.8,0000.0,0012.48,0007.24,0006.61
2023-02-02 09:31:00,,0828.0,4.97,0.00,22.7,21.2,00.0,31.6,24.5,08.8,0000.0,0012.63,0007.33,0006.72
2023-02-02 09:32:00,,0828.0,5.00,0.00,22.7,21.2,00.0,31.6,24.5,08.8,0000.0,0012.72,0007.41,0006.82
2023-02-02 09:33:00,,0828.0,5.00,0.00,22.7,21.2,00.0,31.5,24.4,08.8,0000.0,0012.50,0007.46,0006.87
2023-02-02 09:34:00,,0828.0,5.01,0.00,22.7,21.1,00.0,31.5,24.4,08.9,0000.0,0012.41,0007.52,0006.92
2023-02-02 09:35:00,,0828.0,5.01,0.00,22.7,21.1,00.0,31.5,24.4,08.9,0000.0,0013.22,0007.60,0006.96
2023-02-02 09:36:00,,0828.0,5.01,0.00,22.6,21.0,00.0,31.5,24.4,08.9,0000.0,0013.42,0007.63,0006.98
2023-02-02 09:37:00,,0828.0,5.04,0.00,22.6,21.0,00.0,31.5,24.4,08.9,0000.0,0013.37,0007.64,0006.97
2023-02-02 09:38:00,,0828.0,4.98,0.00,22.6,21.0,00.0,31.5,24.4,08.9,0000.0,0013.45,0007.66,0006.97
2023-02-02 09:39:00,,0828.1,4.98,0.00,22.6,21.0,00.0,31.5,24.4,09.0,0000.0,0013.50,0007.67,0006.98
2023-02-02 09:40:00,,0828.1,4.99,0.00,22.6,20.9,00.0,31.5,24.3,09.0,0000.0,0013.38,0007.71,0007.00
2023-02-02 09:41:00,,0828.1,4.96,0.00,22.6,21.1,00.0,31.5,24.4,09.0,0000.0,0013.46,0007.80,0007.04
2023-02-02 09:42:00,,0828.1,5.01,0.00,22.6,21.9,00.0,31.4,24.6,09.0,0000.0,0013.58,0007.86,0007.08
2023-02-02 09:43:00,,0828.1,5.01,0.00,22.7,22.8,00.0,31.4,24.8,08.9,0000.0,0013.71,0007.95,0007.14
2023-02-02 09:44:00,,0828.2,5.00,0.00,22.8,22.9,00.0,31.5,24.9,08.9,0000.0,0013.77,0008.03,0007.22
2023-02-02 09:45:00,,0828.1,4.98,0.00,22.8,22.5,00.0,31.5,24.8,08.9,0000.0,0013.84,0008.08,0007.28
2023-02-02 09:46:00,,0828.1,5.00,0.00,22.8,22.2,00.0,31.5,24.7,08.9,0000.0,0013.35,0008.08,0007.31
2023-02-02 09:47:00,,0828.1,4.99,0.00,22.8,21.9,00.0,31.6,24.6,08.9,0000.0,0013.17,0008.12,0007.35
2023-02-02 09:48:00,,0828.1,5.00,0.00,22.8,21.7,00.0,31.6,24.6,08.9,0000.0,0013.32,0008.22,0007.43
2023-02-02 09:49:00,,0828.1,4.99,0.00,22.8,21.6,00.0,31.6,24.6,08.9,0000.0,0013.54,0008.34,0007.51
2023-02-02 09:50:00,,0828.1,5.01,0.00,22.8,21.4,00.0,31.6,24.5,08.9,0000.0,0013.54,0008.38,0007.56
2023-02-02 09:51:00,,0828.1,5.01,0.00,22.7,21.3,00.0,31.6,24.5,08.9,0000.0,0013.54,0008.34,0007.53
2023-02-02 09:52:00,,0828.1,5.00,0.00,22.7,21.2,00.0,31.6,24.4,08.9,0000.0,0013.24,0008.13,0007.36
2023-02-02 09:53:00,,0828.2,5.03,0.00,22.7,21.2,00.0,31.6,24.4,08.8,0000.0,0012.91,0007.82,0007.07
2023-02-02 09:54:00,,0828.2,5.00,0.00,22.7,21.2,00.0,31.6,24.4,08.9,0000.0,0012.75,0007.72,0006.99
2023-02-02 09:55:00,,0828.2,5.02,0.00,22.7,21.1,00.0,31.6,24.4,08.9,0000.0,0012.78,0007.74,0007.00
2023-02-02 09:56:00,,0828.2,4.99,0.00,22.7,21.1,00.0,31.6,24.4,08.8,0000.0,0012.72,0007.72,0007.01
2023-02-02 09:57:00,,0828.3,5.00,0.00,22.6,21.1,00.0,31.5,24.4,08.7,0000.0,0012.88,0007.77,0007.01
2023-02-02 09:58:00,,0828.3,5.01,0.00,22.6,21.1,00.0,31.5,24.4,08.9,0000.0,0014.04,0007.78,0006.99
2023-02-02 09:59:00,,0828.2,5.01,0.00,22.6,21.1,00.0,31.5,24.4,08.8,0000.0,0014.07,0007.78,0006.97
